x

East Superior -70 Nm Ne Marquette, Mi (45004) Wave Buoy

11:50pm - Sat 23rd May 2015 All times are CDT. -5 hours from GMT.

  • Sig Wave height 2.0ft
  • Swell Direction
  • Peak Period 6s
  • Average Period 4s
  • Wind
    11mph, 13mph gusts
  • Sea Temp 36°f
  • Air Temp 43°f
  • Sea Pressure 1018.8mb
  • East Superior -70 Nm Ne Marquette, Mi
  • East Superior -70 Nm Ne Marquette, Mi

More Historic Weather Station data

Upgrade to MSW Pro to gain access to the past 30 days of data for over 8000 Wavebouys and Weather Stations around the globe.

Join Pro

Comparision Forecast

View Surf forecast
   
Sat 05/23 11:50pm 2ft 6s 4s 11 13 mph 1018.8mb 36f 43f
10:50pm 2.5ft 6s 4s 13 16 mph 1019.1mb 36f 43f
9:50pm 2.5ft 6s 4s 2 4 mph 1019.5mb 36f 46f
8:50pm 3ft 5s 4s 7 9 mph 1019.3mb 36f 47f
7:50pm 3.5ft 6s 4s 4 7 mph 1018.7mb 36f 47f
6:50pm 3.5ft 6s 4s 13 16 mph 1019.5mb 36f 46f
5:50pm 4ft 6s 5s 9
mph
1018.7mb 36f 43f
4:50pm 3.5ft 6s 5s 9 11 mph 1018.6mb 36f 44f
3:50pm 4ft 6s 5s 13 16 mph 1018.8mb 36f 46f
2:50pm 4.5ft 6s 5s 9 11 mph 1019.4mb 36f 42f
1:50pm 4ft 6s 5s 11 13 mph 1019.4mb 36f 42f
12:50pm 4ft 6s 5s 13
mph
1019.3mb 36f 42f
11:50am 3.5ft 4s 4s 11 13 mph 1019.6mb 36f 44f
10:50am 2.5ft 5s 4s 16
mph
1019.6mb 36f 43f
9:50am 2ft 4s 4s 18 20 mph 1019.3mb 36f 42f
8:50am 2.5ft 4s 4s 13 16 mph 1019.8mb 36f 41f
7:50am 2.5ft 5s 4s 13 16 mph 1020.3mb 36f 40f
6:50am 2.5ft 4s 4s 13 18 mph 1020.5mb 36f 39f
5:50am 2.5ft 4s 3s 18 20 mph 1019.9mb 36f 40f
4:50am 2.5ft 4s 3s 18 22 mph 1020.2mb 36f 40f
3:50am 1.6ft 3s 3s 18 20 mph 1020.7mb 36f 40f
2:50am 1.3ft 3s 3s 16 18 mph 1021.2mb 36f 40f
1:50am 1ft 2s 3s 16 18 mph 1021.8mb 36f 39f
12:50am 0.7ft  -  3s 13
mph
1022.6mb 36f 39f
Fri 05/22 11:50pm 0.7ft  -  3s 11
mph
1023.4mb 36f 38f
10:50pm 0.3ft  -  3s 11
mph
1023.8mb 36f 37f
9:50pm  -   -   -  11 13 mph 1024.2mb 36f 37f
8:50pm 0.3ft  -  3s 7 9 mph 1024.2mb 36f 37f
7:50pm 0.3ft  -  3s 9
mph
1024.2mb 36f 37f
6:50pm 0.3ft  -  3s 9 11 mph 1024.4mb 36f 37f
5:50pm 0.3ft  -  3s 7 9 mph 1024.7mb 36f 37f
4:50pm 0.3ft  -  3s 9
mph
1025.2mb 36f 37f
3:50pm 0.3ft  -  3s 9
mph
1025.4mb 36f 36f
2:50pm 0.3ft  -  3s 4 7 mph 1025.5mb 36f 36f
1:50pm 0.7ft  -  3s 4 7 mph 1025.6mb 36f 36f
12:50pm 0.7ft  -  3s 4
mph
1025.6mb 36f 36f
11:50am 0.7ft  -  3s 2
mph
1025.4mb 36f 36f
10:50am 1ft 3s 3s  -  mph 1025.3mb 36f 36f
9:50am 1ft 3s 3s 2
mph
1025.1mb 36f 36f
8:50am 1.3ft 4s 3s 2 4 mph 1024.7mb 36f 36f
7:50am 1.3ft 4s 3s 4
mph
1024.1mb 36f 36f
6:50am 1.6ft 4s 4s 4
mph
1023.4mb 36f 37f
5:50am 1.3ft 3s 3s 2
mph
1022.6mb 35f 36f
4:50am 1ft 4s 3s 4 7 mph 1021.8mb 36f 35f
3:50am 1.3ft 5s 3s 9
mph
1021.1mb 36f 36f
2:50am 1.6ft 4s 4s 11
mph
1020.4mb 36f 37f
1:50am 1.6ft 5s 4s 11 13 mph 1019.8mb 36f 37f
12:50am 2ft 5s 4s 11 13 mph 1019.3mb 36f 38f
Thu 05/21 11:50pm 2.5ft 5s 4s 11
mph
1018.6mb 36f 39f
10:50pm 2.5ft 5s 4s 11 13 mph 1017.8mb 36f 39f
9:50pm 2.5ft 5s 4s 13 16 mph 1017.1mb 36f 39f
8:50pm 3ft 5s 4s 11 13 mph 1016.4mb 36f 39f
7:50pm 3ft 5s 4s 11
mph
1015.8mb 36f 40f
6:50pm 2.5ft 4s 4s 16 18 mph 1015mb 36f 42f
5:50pm 2ft 3s 3s 20 22 mph 1014.8mb 36f 42f
4:50pm 1.3ft 3s 3s 20 25 mph 1014.6mb 36f 42f
3:50pm 1.3ft 5s 3s 11 13 mph 1015mb 36f 40f
2:50pm 1.3ft 4s 3s 13 16 mph 1014.7mb 36f 39f
1:50pm 1.3ft 4s 3s 11 13 mph 1014.6mb 36f 38f
12:50pm 1.3ft 4s 3s 13
mph
1014.5mb 36f 38f
11:50am 1.6ft 5s 4s 13 16 mph 1014.2mb 36f 37f
10:50am 2ft 5s 4s 11 13 mph 1013.7mb 36f 37f
9:50am 2ft 5s 4s 11 13 mph 1013.3mb 36f 37f
8:50am 2.5ft 5s 4s 11
mph
1013mb 36f 38f
7:50am 2.5ft 5s 4s 13 16 mph 1012.6mb 36f 38f
6:50am 2.5ft 5s 4s 16 18 mph 1012.1mb 36f 38f
5:50am 2ft 5s 4s 11
mph
1011.5mb 36f 38f
4:50am 1.6ft 4s 3s 13 16 mph 1011.1mb 36f 38f
3:50am 1.6ft 4s 3s 11 13 mph 1011mb 36f 39f
2:50am 1.6ft 4s 3s 11
mph
1011.7mb 36f 40f
1:50am 1.6ft 4s 3s 16 18 mph 1011.6mb 36f 42f
12:50am 1.6ft 4s 3s 16 18 mph 1012.5mb 36f 41f
Wed 05/20 11:50pm 1.3ft 4s 3s 11 13 mph 1013.3mb 36f 39f
10:50pm 1.3ft 4s 4s 11 13 mph 1014.1mb 36f 39f
9:50pm 1.6ft 5s 4s 11 13 mph 1014.7mb 36f 39f
8:50pm 1.6ft 5s 4s 9 11 mph 1015.1mb 36f 39f
7:50pm 1.6ft 5s 4s 9 11 mph 1015.3mb 36f 42f
6:50pm 1.6ft 5s 4s 9
mph
1016.3mb 36f 40f
5:50pm 1.6ft 4s 4s 9 11 mph 1016.7mb 36f 39f
4:50pm 1.3ft 3s 3s 11
mph
1018.1mb 36f 40f
3:50pm 1.3ft 4s 3s 11
mph
1019.2mb 36f 39f
2:50pm 1ft 3s 3s 11
mph
1019.5mb 36f 39f
1:50pm 1.3ft 4s 3s 11 13 mph 1019.7mb 36f 38f
12:50pm 1.3ft 4s 3s 11
mph
1019.9mb 36f 38f
11:50am 1.3ft 4s 3s 11 13 mph 1020.6mb 36f 38f
10:50am 1ft 4s 3s 13 16 mph 1020.5mb 35f 38f
9:50am 1ft 3s 3s 11 13 mph 1020.3mb 36f 38f
8:50am 1ft 4s 3s 9
mph
1020.4mb 35f 38f
7:50am 1ft 4s 3s 9 11 mph 1020.5mb 35f 38f
6:50am 1.3ft 4s 3s 11
mph
1020.7mb 35f 37f